DW7380 Weather Reports


Display with metric or nautical units.
time (UTC)temp
F
wind
direction
speed
MPH
gust
MPH
rain 1hr
in
rain 24hr
in
rain mn
in
humidity
%
barometer
mb
20191210013526 42 153 10.0 21.0 0.00 0.03 0.00 86 997.6
20191210013025 42 149 10.0 24.0 0.00 0.03 0.00 86 997.5
20191210012526 42 197 6.0 18.0 0.00 0.03 0.00 86 997.5
20191210012026 42 166 10.0 23.0 0.00 0.04 0.00 86 997.3
20191210011526 42 166 11.0 19.0 0.00 0.04 0.00 86 997.4
20191210011027 42 151 5.0 25.0 0.00 0.04 0.00 85 997.2
20191210010526 43 154 11.0 23.0 0.00 0.04 0.00 85 997.2
20191210010025 42 152 11.0 22.0 0.00 0.04 0.00 85 997.0
20191210005525 43 179 10.0 19.0 0.00 0.04 0.00 85 997.0
20191210005025 43 197 7.0 22.0 0.00 0.04 0.00 85 997.0
20191210004525 43 191 10.0 21.0 0.00 0.04 0.00 85 997.0
20191210004025 43 162 13.0 24.0 0.00 0.05 0.00 85 996.8
20191210003525 43 156 3.0 19.0 0.00 0.05 0.00 84 996.8
20191210003026 43 168 6.0 19.0 0.00 0.05 0.00 84 996.8
20191210002526 43 164 13.0 15.0 0.00 0.05 0.00 84 996.7
20191210002026 43 163 12.0 21.0 0.00 0.05 0.00 84 996.6
20191210001525 43 170 11.0 18.0 0.00 0.05 0.00 85 996.6
20191210001026 42 139 11.0 19.0 0.00 0.05 0.00 85 996.5
20191210000526 43 171 11.0 24.0 0.00 0.05 0.00 84 996.4
20191210000026 42 160 22.0 23.0 0.00 0.05 0.00 85 996.4
20191209235526 42 164 11.0 18.0 0.00 0.05 0.00 85 996.4
20191209235025 42 156 10.0 23.0 0.00 0.05 0.00 84 996.3
20191209234526 42 160 13.0 20.0 0.00 0.05 0.00 84 996.3
20191209234025 42 155 7.0 24.0 0.00 0.06 0.00 85 996.1
20191209233526 42 158 6.0 20.0 0.00 0.06 0.00 85 996.1
20191209233026 43 167 9.0 23.0 0.00 0.06 0.00 84 996.1
20191209232526 43 153 14.0 22.0 0.00 0.07 0.00 84 996.0
20191209232026 43 166 8.0 24.0 0.00 0.07 0.00 84 995.9
20191209231525 43 169 11.0 21.0 0.00 0.07 0.00 84 995.8
20191209231026 43 165 10.0 22.0 0.00 0.07 0.00 85 995.8
20191209230526 43 162 14.0 26.0 0.00 0.07 0.00 84 995.6
20191209230025 43 177 13.0 21.0 0.00 0.07 0.00 85 995.6
20191209225525 43 152 3.0 20.0 0.00 0.07 0.00 84 995.6
20191209225026 43 155 9.0 22.0 0.00 0.07 0.00 85 995.5
20191209224526 43 152 12.0 21.0 0.00 0.07 0.00 85 995.4
20191209224027 43 182 16.0 20.0 0.00 0.07 0.00 85 995.3
20191209223526 43 162 1.0 20.0 0.00 0.07 0.00 85 995.3
20191209223026 43 158 9.0 24.0 0.00 0.07 0.00 85 995.2
20191209222525 43 145 15.0 22.0 0.00 0.07 0.00 85 995.2
20191209222025 43 162 10.0 23.0 0.00 0.07 0.00 85 995.3
20191209221526 43 136 4.0 21.0 0.00 0.07 0.00 85 995.1
20191209221025 43 155 14.0 24.0 0.00 0.07 0.00 85 995.1
20191209220525 43 174 13.0 23.0 0.00 0.07 0.00 85 994.9
20191209220026 43 157 8.0 22.0 0.00 0.07 0.00 85 994.9
20191209215526 43 152 9.0 19.0 0.00 0.07 0.00 85 994.9
20191209215026 43 173 9.0 17.0 0.00 0.07 0.00 85 994.8
20191209214526 43 158 6.0 22.0 0.00 0.07 0.00 85 994.7
20191209214025 43 162 10.0 22.0 0.00 0.07 0.00 85 994.7
20191209213526 43 155 8.0 21.0 0.00 0.07 0.00 85 994.7
20191209213025 43 155 10.0 20.0 0.00 0.07 0.00 85 994.6
20191209212525 43 188 11.0 21.0 0.00 0.07 0.00 85 994.5
20191209212025 43 167 11.0 28.0 0.00 0.07 0.00 85 994.3
20191209211525 43 188 13.0 28.0 0.00 0.07 0.00 85 994.3
20191209211025 43 185 7.0 24.0 0.00 0.07 0.00 85 994.3
20191209210526 43 156 14.0 24.0 0.00 0.07 0.00 85 994.2
20191209210025 42 177 11.0 22.0 0.00 0.07 0.00 86 994.1
20191209205525 42 164 13.0 20.0 0.00 0.07 0.00 86 993.9
20191209205026 42 170 16.0 20.0 0.00 0.07 0.00 86 993.9
20191209204526 42 154 3.0 20.0 0.00 0.07 0.00 86 993.8
20191209204025 42 175 12.0 24.0 0.00 0.07 0.00 86 993.8
20191209203526 42 181 8.0 19.0 0.00 0.07 0.00 86 993.7
20191209203026 42 191 8.0 24.0 0.00 0.07 0.00 86 993.6
20191209202526 42 137 8.0 25.0 0.00 0.07 0.00 86 993.6
20191209202025 42 172 16.0 31.0 0.00 0.07 0.00 86 993.5
20191209201525 42 145 16.0 21.0 0.00 0.07 0.00 86 993.3
20191209201026 42 179 16.0 24.0 0.00 0.07 0.00 86 993.3
20191209200525 42 170 14.0 20.0 0.00 0.07 0.00 87 993.2
20191209194026 42 168 17.0 22.0 0.00 0.08 0.00 88 992.9
20191209193525 42 169 14.0 20.0 0.00 0.09 0.00 88 992.8
20191209193025 42 166 8.0 23.0 0.00 0.09 0.00 88 992.6
20191209192525 42 149 8.0 22.0 0.00 0.09 0.00 88 992.6
20191209192025 42 154 7.0 26.0 0.00 0.09 0.00 87 992.6
20191209191525 42 156 14.0 20.0 0.00 0.09 0.00 87 992.6
20191209191026 43 136 7.0 26.0 0.00 0.09 0.00 87 992.4
20191209190526 43 156 16.0 25.0 0.00 0.09 0.00 86 992.4
20191209190034 43 165 9.0 19.0 0.00 0.10 0.00 86 992.3
20191209185526 43 156 11.0 23.0 0.00 0.10 0.00 86 992.2
20191209185025 43 139 12.0 22.0 0.00 0.10 0.00 86 992.2
20191209184525 43 162 13.0 21.0 0.00 0.10 0.00 85 992.2
20191209184026 43 147 9.0 23.0 0.00 0.10 0.00 85 992.1
20191209183525 43 168 14.0 22.0 0.00 0.10 0.00 84 992.0
20191209183026 43 187 10.0 24.0 0.00 0.10 0.00 84 992.0
20191209182526 43 170 4.0 20.0 0.00 0.10 0.00 84 991.8
20191209182026 43 179 13.0 23.0 0.00 0.10 0.00 84 991.7
20191209181526 43 156 21.0 29.0 0.00 0.10 0.00 84 991.6
20191209181025 43 170 18.0 23.0 0.00 0.10 0.00 84 991.7
20191209180525 43 154 7.0 24.0 0.00 0.10 0.00 84 991.6
20191209180025 43 160 17.0 24.0 0.00 0.10 0.00 84 991.4
20191209175525 43 163 11.0 25.0 0.00 0.10 0.00 83 991.4
20191209175025 43 193 8.0 30.0 0.00 0.10 0.00 83 991.3
20191209174526 43 168 13.0 22.0 0.00 0.10 0.00 83 991.3
20191209174025 43 181 12.0 26.0 0.00 0.10 0.00 83 991.3
20191209173525 43 154 8.0 27.0 0.00 0.10 0.00 83 991.2
20191209173027 43 166 27.0 29.0 0.00 0.10 0.00 83 991.1
20191209172525 43 156 12.0 24.0 0.00 0.10 0.00 83 991.0
20191209172026 43 161 11.0 26.0 0.00 0.10 0.00 83 991.0
20191209171525 43 179 7.0 21.0 0.00 0.10 0.00 83 990.8
20191209171025 43 151 19.0 24.0 0.00 0.10 0.00 83 990.8
20191209170526 43 181 13.0 23.0 0.00 0.10 0.00 83 990.7
20191209170025 43 168 14.0 24.0 0.00 0.10 0.00 83 990.8
20191209165526 43 162 13.0 25.0 0.00 0.10 0.00 83 990.5
20191209165026 43 180 5.0 23.0 0.00 0.10 0.00 83 990.5
20191209164526 43 168 9.0 23.0 0.00 0.10 0.00 83 990.5
20191209164025 43 141 8.0 21.0 0.00 0.10 0.00 83 990.5
20191209163528 43 177 9.0 24.0 0.00 0.10 0.00 83 990.4
20191209163027 43 172 8.0 23.0 0.00 0.10 0.00 83 990.4
20191209162525 43 164 10.0 20.0 0.00 0.10 0.00 84 990.3
20191209162026 43 172 14.0 23.0 0.00 0.10 0.00 84 990.2
20191209161526 43 135 4.0 26.0 0.00 0.10 0.00 83 990.3
20191209161025 43 173 10.0 27.0 0.00 0.10 0.00 84 990.2
20191209160526 43 171 16.0 27.0 0.00 0.10 0.00 83 990.2
20191209160025 43 160 11.0 23.0 0.00 0.10 0.00 84 990.0
20191209155526 43 145 14.0 22.0 0.00 0.10 0.00 83 990.0
20191209155025 43 164 15.0 24.0 0.00 0.10 0.00 84 990.0
20191209154526 43 170 5.0 26.0 0.00 0.10 0.00 84 989.7
20191209154025 43 163 13.0 26.0 0.00 0.10 0.00 85 989.7
20191209153525 43 189 11.0 21.0 0.00 0.10 0.00 85 989.7
20191209153025 43 181 17.0 27.0 0.00 0.10 0.00 85 989.7
20191209152526 43 166 21.0 24.0 0.00 0.10 0.00 85 989.6
20191209152026 43 162 12.0 22.0 0.00 0.10 0.00 86 989.5
20191209151525 43 169 18.0 22.0 0.00 0.10 0.00 86 989.3
20191209151025 43 168 16.0 24.0 0.00 0.10 0.00 87 989.3
20191209150526 43 170 15.0 28.0 0.00 0.10 0.00 87 989.1
20191209150026 43 160 15.0 28.0 0.00 0.10 0.00 87 989.1
20191209145525 43 154 13.0 26.0 0.00 0.10 0.00 86 989.2
20191209145026 43 172 12.0 29.0 0.00 0.10 0.00 86 989.2
20191209144527 43 143 13.0 28.0 0.00 0.10 0.00 86 989.1
20191209144026 43 169 13.0 24.0 0.00 0.10 0.00 86 989.1
20191209143525 43 181 7.0 23.0 0.00 0.10 0.00 86 988.9
20191209143025 43 172 12.0 22.0 0.00 0.10 0.00 86 989.0
20191209142526 43 145 8.0 18.0 0.00 0.10 0.00 85 988.8
20191209142025 43 173 11.0 26.0 0.00 0.10 0.00 85 988.9
20191209141526 43 169 22.0 29.0 0.00 0.10 0.00 85 988.9
20191209141026 43 161 15.0 18.0 0.00 0.10 0.00 85 988.8
20191209140526 43 164 11.0 24.0 0.00 0.10 0.00 85 988.7
20191209140025 43 177 9.0 23.0 0.00 0.10 0.00 85 988.7
20191209135525 43 160 9.0 22.0 0.00 0.10 0.00 85 988.6
20191209135026 43 159 15.0 23.0 0.00 0.10 0.00 85 988.6
20191209134525 43 165 21.0 24.0 0.00 0.10 0.00 86 988.3
20191209134025 43 149 9.0 26.0 0.00 0.10 0.00 86 988.4
20191209133526 43 159 15.0 26.0 0.00 0.10 0.00 86 988.3
20191209133026 43 165 21.0 29.0 0.00 0.10 0.00 86 988.3
20191209132525 43 156 15.0 29.0 0.00 0.10 0.00 86 988.1
20191209132025 43 162 11.0 26.0 0.00 0.10 0.00 85 988.1
20191209131526 43 156 12.0 24.0 0.00 0.10 0.00 85 988.0
20191209131025 43 163 17.0 26.0 0.00 0.10 0.00 85 988.0
20191209130525 43 182 22.0 29.0 0.00 0.10 0.00 85 987.8
20191209130025 43 157 13.0 25.0 0.00 0.10 0.00 85 987.7
20191209125526 43 172 20.0 27.0 0.00 0.10 0.00 84 987.7
20191209125026 43 158 16.0 27.0 0.00 0.10 0.00 84 987.6
20191209124525 43 175 9.0 22.0 0.00 0.10 0.00 85 987.5
20191209124026 43 166 11.0 24.0 0.00 0.10 0.00 85 987.6
20191209123525 43 179 11.0 22.0 0.00 0.10 0.00 86 987.5
20191209123025 43 152 11.0 24.0 0.00 0.10 0.00 86 987.5
20191209122525 43 179 11.0 26.0 0.00 0.10 0.00 86 987.3
20191209122027 43 168 20.0 25.0 0.00 0.10 0.00 87 987.2
20191209121526 43 163 6.0 18.0 0.00 0.10 0.00 87 987.2
20191209121026 43 172 14.0 20.0 0.00 0.10 0.00 87 987.3
20191209120525 43 165 14.0 23.0 0.00 0.10 0.00 87 987.2
20191209120026 43 160 13.0 20.0 0.00 0.10 0.00 87 987.1
20191209115526 43 164 16.0 26.0 0.00 0.10 0.00 87 987.1
20191209115025 43 152 10.0 24.0 0.00 0.09 0.00 87 987.0
20191209114526 43 186 8.0 23.0 0.00 0.09 0.00 87 987.1
20191209114026 43 170 9.0 21.0 0.00 0.09 0.00 87 987.0
20191209113526 43 168 18.0 27.0 0.00 0.09 0.00 87 986.9
20191209113025 43 159 9.0 22.0 0.00 0.09 0.00 87 986.8
20191209112526 43 156 16.0 22.0 0.00 0.09 0.00 86 986.8
20191209112025 43 152 9.0 27.0 0.00 0.09 0.00 85 986.6
20191209111525 43 138 9.0 20.0 0.00 0.09 0.00 85 986.5
20191209111025 44 176 26.0 31.0 0.00 0.09 0.00 84 986.6
20191209110525 43 161 16.0 21.0 0.00 0.09 0.00 85 986.5
20191209110026 44 162 8.0 23.0 0.00 0.09 0.00 85 986.5
20191209105525 44 179 15.0 27.0 0.00 0.09 0.00 85 986.4
20191209105025 44 159 10.0 31.0 0.00 0.09 0.00 85 986.3
20191209104526 44 162 13.0 25.0 0.00 0.09 0.00 85 986.1
20191209104026 44 183 13.0 30.0 0.00 0.09 0.00 85 986.1
20191209103525 44 166 10.0 23.0 0.00 0.09 0.00 85 986.1
20191209103026 44 166 11.0 21.0 0.00 0.09 0.00 85 985.9
20191209102526 44 162 12.0 24.0 0.00 0.09 0.00 85 985.7
20191209102026 44 181 12.0 25.0 0.00 0.09 0.00 85 985.8
20191209101525 44 205 9.0 29.0 0.00 0.09 0.00 85 985.6
20191209101026 43 156 18.0 20.0 0.00 0.09 0.00 86 985.7
20191209100526 43 196 9.0 18.0 0.00 0.09 0.00 87 985.6
20191209100026 43 166 10.0 23.0 0.00 0.09 0.00 87 985.7
20191209095525 44 235 5.0 29.0 0.00 0.09 0.00 86 985.7
20191209095025 43 171 13.0 27.0 0.00 0.09 0.00 86 985.5
20191209094526 44 164 11.0 26.0 0.00 0.09 0.00 86 985.4
20191209094026 44 143 12.0 20.0 0.00 0.09 0.00 86 985.4
20191209093525 44 168 10.0 28.0 0.00 0.09 0.00 86 985.5
20191209093025 44 139 7.0 29.0 0.00 0.09 0.00 85 985.5
20191209092526 44 169 18.0 21.0 0.00 0.09 0.00 85 985.5
20191209092026 44 174 9.0 20.0 0.00 0.09 0.00 85 985.4
20191209091525 44 164 7.0 24.0 0.00 0.09 0.00 85 985.4
20191209091026 44 158 10.0 22.0 0.00 0.09 0.00 85 985.4
20191209090526 44 168 18.0 25.0 0.00 0.09 0.00 85 985.3
20191209090025 44 163 13.0 24.0 0.00 0.09 0.00 86 985.3
20191209085526 43 136 10.0 24.0 0.00 0.09 0.00 87 985.2
20191209085025 43 179 12.0 19.0 0.00 0.09 0.00 87 985.2
20191209084525 43 164 15.0 18.0 0.00 0.09 0.00 87 985.2
20191209084025 43 177 15.0 19.0 0.00 0.10 0.00 87 985.1
20191209083526 43 167 13.0 23.0 0.00 0.10 0.00 88 985.1
20191209083026 43 157 13.0 18.0 0.00 0.10 0.00 88 985.0
20191209082525 43 160 12.0 24.0 0.00 0.10 0.00 88 985.0
20191209082025 43 167 12.0 21.0 0.00 0.10 0.00 87 984.9
20191209081525 43 162 11.0 21.0 0.00 0.10 0.00 87 985.0
20191209081025 44 179 13.0 24.0 0.00 0.10 0.00 87 984.9
20191209080525 44 178 10.0 23.0 0.00 0.10 0.00 87 984.9
20191209080027 44 164 12.0 18.0 0.00 0.10 0.00 87 984.7
20191209075525 44 145 6.0 27.0 0.00 0.10 0.00 87 984.7
20191209075025 44 174 15.0 24.0 0.00 0.10 0.00 87 984.5
20191209074526 44 197 9.0 22.0 0.00 0.10 0.00 87 984.4
20191209074025 44 162 21.0 21.0 0.00 0.10 0.00 88 984.3
20191209073527 44 168 13.0 18.0 0.00 0.10 0.00 88 984.2
20191209073026 44 180 3.0 22.0 0.00 0.10 0.00 88 984.2
20191209072525 44 156 15.0 23.0 0.00 0.10 0.00 88 984.0
20191209072025 44 155 17.0 22.0 0.00 0.10 0.00 88 984.0
20191209071525 44 177 10.0 18.0 0.00 0.10 0.00 88 984.0
20191209071026 44 149 8.0 22.0 0.00 0.10 0.00 88 983.9
20191209070525 43 154 10.0 22.0 0.00 0.10 0.00 88 983.9
20191209070025 43 210 10.0 23.0 0.00 0.10 0.00 89 983.9
20191209065525 43 160 7.0 23.0 0.00 0.10 0.00 89 983.8
20191209065025 43 164 11.0 19.0 0.00 0.10 0.00 89 983.6
20191209064526 43 170 13.0 18.0 0.00 0.10 0.00 89 983.7
20191209064025 43 160 15.0 23.0 0.00 0.10 0.00 89 983.7
20191209063525 43 190 15.0 28.0 0.00 0.10 0.00 90 983.6
20191209063026 43 149 10.0 17.0 0.00 0.10 0.00 90 983.6
20191209062525 43 156 14.0 21.0 0.00 0.10 0.00 90 983.5
20191209062025 43 158 12.0 17.0 0.00 0.10 0.00 91 983.4
20191209061525 43 174 4.0 17.0 0.00 0.10 0.00 91 983.3
20191209061026 43 167 15.0 20.0 0.00 0.10 0.00 91 983.3
20191209060526 43 173 7.0 17.0 0.00 0.10 0.00 91 983.2
20191209060025 43 190 10.0 16.0 0.00 0.10 0.00 92 983.2
20191209055525 43 185 8.0 16.0 0.00 0.10 0.00 92 983.2
20191209055026 43 168 12.0 15.0 0.00 0.10 0.00 92 983.1
20191209054526 43 173 8.0 15.0 0.00 0.10 0.00 91 983.1
20191209054025 43 189 10.0 14.0 0.00 0.10 0.00 91 983.1
20191209053525 43 152 8.0 17.0 0.01 0.10 0.00 91 983.1
20191209053025 43 157 15.0 21.0 0.01 0.10 0.00 91 983.1
20191209052525 43 160 8.0 15.0 0.01 0.10 0.00 91 982.9
20191209052025 43 183 4.0 21.0 0.01 0.10 0.00 90 982.8
20191209051525 43 168 10.0 22.0 0.01 0.10 0.00 90 983.0
20191209051025 43 164 13.0 23.0 0.00 0.09 0.00 90 982.9
20191209050525 43 165 21.0 23.0 0.00 0.09 0.00 91 982.8
20191209050025 43 166 11.0 29.0 0.00 0.09 0.00 92 982.8
20191209045525 43 185 18.0 30.0 0.00 0.09 0.00 92 982.8
20191209045025 43 154 8.0 13.0 0.00 0.09 0.00 92 982.6
20191209044526 43 170 15.0 24.0 0.00 0.09 0.00 92 982.8
20191209044026 43 186 14.0 21.0 0.00 0.09 0.00 92 982.6
20191209043526 43 170 15.0 17.0 0.00 0.08 0.00 92 982.6
20191209043025 43 165 10.0 19.0 0.00 0.08 0.00 93 982.6
20191209042526 43 155 6.0 20.0 0.00 0.08 0.00 93 982.8
20191209042026 43 175 9.0 20.0 0.00 0.08 0.00 93 982.6
20191209041525 43 187 12.0 19.0 0.00 0.08 0.00 93 982.4
20191209041025 43 161 7.0 17.0 0.00 0.08 0.00 93 982.3
20191209040525 43 168 14.0 23.0 0.00 0.08 0.00 93 982.4
20191209040025 43 151 15.0 22.0 0.00 0.08 0.00 93 982.4
20191209035525 42 188 8.0 19.0 0.00 0.08 0.00 93 982.4
20191209035025 42 152 12.0 25.0 0.00 0.08 0.00 93 982.3
20191209034525 42 172 12.0 19.0 0.00 0.08 0.00 93 982.3
20191209034025 42 172 12.0 25.0 0.00 0.08 0.00 94 982.3
20191209033525 42 176 11.0 23.0 0.00 0.08 0.00 93 982.2
20191209033025 42 158 18.0 23.0 0.01 0.08 0.00 94 982.1
20191209032527 42 179 10.0 15.0 0.01 0.08 0.00 94 982.1
20191209032026 42 177 15.0 24.0 0.01 0.08 0.00 94 982.2
20191209031525 41 171 24.0 24.0 0.01 0.08 0.00 94 982.2
20191209031025 41 164 6.0 21.0 0.01 0.08 0.00 94 982.1
20191209030526 41 162 17.0 34.0 0.01 0.08 0.00 95 982.2
20191209030026 41 181 12.0 34.0 0.01 0.09 0.00 95 982.1
20191209025526 40 97 8.0 18.0 0.01 0.09 0.00 95 982.0
20191209025025 40 158 10.0 21.0 0.01 0.09 0.00 95 982.1
20191209024525 40 151 9.0 13.0 0.00 0.09 0.00 95 982.1
20191209024025 40 174 8.0 19.0 0.00 0.09 0.00 95 982.0
20191209023526 40 164 13.0 18.0 0.00 0.09 0.00 95 982.1
20191209023026 39 166 6.0 16.0 0.00 0.09 0.00 95 982.1
20191209022525 39 166 15.0 23.0 0.00 0.09 0.00 95 982.2
20191209022025 39 168 6.0 21.0 0.00 0.10 0.00 95 982.2
20191209021525 39 158 10.0 22.0 0.00 0.10 0.00 95 982.2
20191209021025 39 170 15.0 19.0 0.00 0.11 0.00 95 982.3
20191209020525 39 162 19.0 27.0 0.00 0.11 0.00 95 982.3
20191209020026 39 146 10.0 27.0 0.00 0.11 0.00 95 982.3
20191209015525 39 169 14.0 28.0 0.00 0.11 0.00 95 982.3
20191209015026 39 166 26.0 26.0 0.00 0.12 0.00 95 982.2
20191209014525 38 185 9.0 17.0 0.00 0.13 0.00 95 982.3
20191209014025 38 164 10.0 19.0 0.01 0.13 0.00 95 982.2